Wetbulb
61.91 61.47 61.24 61.25 61.23 60.08 59.08 58.00 57.61 56.90 56.11 55.87 55.66 55.11 54.31 53.05 51.81 49.79 48.52 48.77 48.19 46.78 47.00 47.32 48.22 48.93 48.28 50.19 50.12 48.83 48.21 48.27 45.28 46.61 48.80 49.70 49.36 49.66 50.89 51.56 53.29 53.73 54.32
61.63 61.32 60.41 60.31 59.34 58.12 57.06 56.33 56.03 54.91 54.51 54.09 53.92 52.89 52.23 50.58 48.14 47.94 47.58 47.30 46.63 45.75 46.21 47.44 47.48 49.93 48.90 49.57 50.07 48.67 48.00 47.84 45.76 44.19 46.00 46.45 46.47 48.25 49.50 50.02 51.88 54.32 52.12
61.11 60.13 59.25 58.20 57.15 55.98 55.36 54.70 54.17 53.04 52.62 51.54 51.04 49.73 49.35 48.74 47.08 46.42 46.45 46.29 45.73 45.44 45.96 46.15 46.45 48.36 47.97 47.83 47.46 47.23 47.07 47.35 46.17 44.23 43.39 45.36 45.26 45.80 45.67 48.72 49.35 49.31 52.12
59.02 57.55 56.07 55.20 54.88 54.18 53.43 52.63 51.83 51.42 49.53 48.44 48.10 48.92 49.36 46.59 45.60 45.42 45.17 44.07 43.46 44.01 44.99 45.87 48.17 47.41 46.80 46.50 46.08 45.73 45.84 44.76 44.49 43.36 42.38 42.51 43.25 44.28 44.43 43.36 43.78 46.34 47.07
57.25 56.07 54.94 53.50 52.65 51.60 50.49 49.66 49.55 48.80 48.55 48.63 48.21 48.19 47.26 45.38 45.04 42.29 42.11 41.87 41.81 42.20 43.92 46.06 47.62 48.40 49.18 48.08 45.96 42.50 41.98 41.32 41.06 41.85 41.16 41.42 41.48 41.73 41.36 42.69 42.19 44.21 44.50
54.38 52.93 51.36 50.12 48.95 47.82 47.20 47.36 47.51 47.22 47.36 47.29 47.32 46.75 45.72 47.39 43.60 44.31 42.73 39.71 40.95 41.35 42.33 45.80 47.38 47.83 47.56 48.11 48.27 48.22 47.19 43.75 42.29 41.82 41.68 41.00 41.33 41.93 42.85 42.96 43.63 42.74 41.24
48.78 48.43 47.93 47.48 47.28 46.42 46.91 46.74 45.72 45.12 44.43 44.11 44.51 45.24 45.63 43.40 42.97 42.10 43.62 40.27 40.68 41.24 43.00 44.84 45.03 46.28 47.13 46.11 46.04 46.00 45.26 45.61 45.58 43.63 41.69 41.85 41.87 43.15 43.40 42.33 42.15 42.49 41.35
46.08 46.11 46.57 46.33 45.82 45.22 45.00 43.58 41.95 41.94 41.63 41.94 42.73 43.79 44.67 44.98 41.86 41.26 42.10 40.64 39.72 41.04 42.23 42.00 42.55 45.03 44.80 44.68 43.16 42.52 42.85 43.33 43.52 43.65 42.81 42.96 43.56 44.25 43.74 43.38 42.62 41.94 42.39
45.54 45.46 45.52 45.26 43.93 43.45 41.93 40.53 40.21 39.98 41.11 41.59 42.84 44.11 44.78 43.68 41.52 41.25 41.17 40.08 39.27 40.56 40.95 40.98 41.96 43.68 43.44 41.96 42.01 41.98 42.35 42.32 44.99 44.54 43.87 42.90 41.95 41.70 42.53 42.08 40.41 40.05 39.12
45.26 45.17 44.29 43.66 42.41 41.09 39.98 39.18 41.25 41.59 42.68 43.71 43.91 43.77 43.80 43.62 41.39 40.93 40.90 40.68 39.27 37.27 38.43 39.78 42.51 42.58 40.81 40.35 41.25 41.69 40.72 41.63 42.59 43.09 43.24 42.91 42.70 42.85 43.77 43.48 41.92 39.43 39.50
44.54 43.34 42.20 40.97 39.72 40.03 39.45 40.81 41.27 42.21 42.81 41.48 39.58 42.37 40.79 42.64 40.28 38.81 38.87 37.36 36.56 35.60 36.91 38.20 41.19 40.66 39.48 39.64 40.23 42.00 41.42 41.05 41.88 42.26 42.03 41.99 42.28 42.42 43.38 44.15 43.73 42.43 40.77
41.56 40.77 39.44 37.71 39.72 40.46 38.55 40.03 41.03 39.25 36.78 36.08 35.97 36.38 38.10 40.13 40.67 37.88 37.11 36.92 37.29 34.75 35.65 38.22 38.99 38.61 38.57 39.40 40.50 39.90 39.63 40.89 41.51 41.10 41.29 41.53 41.81 42.37 43.33 44.17 44.82 44.54 44.75
38.39 37.04 37.28 37.26 37.73 37.21 36.75 36.50 36.43 34.76 33.71 33.76 34.05 33.63 36.15 37.02 36.74 37.36 36.40 36.39 36.70 35.57 36.40 38.64 37.98 37.80 39.24 40.40 40.33 40.14 40.22 40.09 39.44 39.01 39.11 40.72 42.15 43.91 44.63 44.34 44.72 45.32 45.49
35.97 35.73 35.86 35.59 35.70 35.78 36.24 36.44 35.55 34.59 32.28 32.56 32.66 31.83 33.86 34.12 35.30 34.56 34.29 34.03 35.41 35.76 36.23 34.82 37.11 39.82 39.74 40.16 39.77 39.69 39.61 39.82 39.68 38.87 38.91 40.10 42.06 43.45 43.30 43.84 42.74 43.06 42.94
36.80 36.55 35.55 37.86 37.66 37.18 38.01 37.88 37.57 36.34 35.87 34.45 34.00 33.57 32.95 32.41 33.83 35.36 34.45 33.38 34.29 35.17 35.32 36.33 37.63 37.36 36.64 36.88 37.71 38.57 38.98 39.35 38.36 38.74 38.45 38.81 38.88 40.51 41.98 43.27 42.60 42.35 41.01
36.06 36.30 36.89 36.82 37.18 37.56 37.73 37.51 38.90 37.94 36.95 36.51 36.18 34.93 34.48 35.21 35.70 35.36 35.08 35.45 35.90 35.87 36.89 35.22 35.10 35.01 34.90 35.71 36.61 37.59 38.21 37.99 37.81 37.95 37.26 37.19 37.76 39.04 40.64 42.35 42.42 41.58 40.45
33.61 36.36 36.19 36.64 35.88 35.95 35.95 35.84 34.36 36.98 37.72 37.08 36.56 35.96 35.69 35.48 35.54 35.27 34.85 34.47 34.54 35.45 34.12 34.00 33.85 34.00 34.48 35.95 36.66 36.56 35.78 36.83 37.64 36.23 35.81 36.25 37.18 38.33 39.41 41.51 41.71 41.58 41.00
33.03 37.90 35.47 35.74 35.30 35.52 35.59 35.02 34.96 34.13 33.28 34.32 36.73 36.07 35.52 35.68 35.48 35.21 34.66 34.60 33.53 33.85 32.94 32.68 32.94 33.75 34.50 35.26 35.16 35.47 36.12 36.05 35.29 34.60 34.61 35.28 35.81 36.85 38.74 42.17 42.38 41.59 41.84
33.69 33.65 33.49 33.17 32.92 33.82 33.08 33.11 34.24 33.90 33.59 33.53 34.77 33.77 34.13 35.02 35.55 35.32 35.38 33.26 32.54 33.24 33.13 33.28 33.58 33.78 34.04 34.40 35.21 35.81 35.68 34.04 33.43 33.31 33.61 33.67 34.46 35.61 37.24 41.88 43.86 38.74 39.86
34.50 36.87 35.59 33.25 32.71 32.03 31.66 30.65 30.20 31.70 32.61 33.06 33.43 29.85 31.63 30.94 31.06 31.73 32.66 33.54 33.28 34.66 34.63 34.14 34.03 34.22 34.25 34.43 35.13 35.77 32.98 32.35 32.16 32.16 32.04 32.59 33.48 34.89 36.45 39.33 42.82 46.08 44.82
35.38 34.27 32.28 33.54 32.38 32.20 31.93 30.79 30.17 29.51 29.18 29.66 29.58 30.77 30.85 29.45 30.06 30.78 31.26 31.96 33.34 34.31 34.78 34.71 34.43 34.52 34.37 34.57 33.56 32.67 31.36 31.07 31.07 30.90 31.12 31.93 33.43 34.68 37.29 40.66 49.19 48.02 47.69
35.02 34.45 33.38 32.31 32.70 32.19 31.03 30.47 29.87 29.35 29.07 28.45 28.52 31.35 31.08 30.53 30.17 30.79 31.33 32.43 33.80 35.19 35.54 35.03 34.99 35.29 34.89 33.19 32.09 30.87 29.95 29.67 29.86 30.20 30.86 32.16 33.58 35.36 37.93 42.95 48.68 47.46 46.64
34.85 34.37 33.09 31.77 32.25 31.56 30.96 30.15 29.24 28.82 28.39 28.23 28.39 29.87 30.38 29.60 29.72 30.86 31.64 32.79 33.80 35.05 35.84 36.58 34.85 34.80 33.93 32.62 31.76 30.94 29.71 29.16 29.60 30.91 31.13 31.85 34.69 40.36 39.63 41.64 48.59 47.13 45.69
34.83 34.01 32.80 31.83 31.64 30.31 29.55 29.01 28.35 29.50 28.70 28.82 28.55 29.36 29.04 29.49 30.11 31.17 31.88 32.67 33.41 33.83 34.31 34.20 33.44 32.43 32.89 31.40 30.57 30.45 30.51 30.29 30.93 31.46 32.37 34.41 38.33 41.29 46.52 48.27 47.76 46.50 44.83
33.86 33.08 31.95 30.83 30.23 29.38 28.78 28.51 27.94 27.76 27.36 28.01 28.53 28.82 28.34 29.62 30.07 30.92 31.40 31.97 32.35 32.45 33.02 32.86 32.26 31.15 31.04 29.63 29.28 29.51 29.77 29.68 30.41 31.05 33.61 35.56 37.31 39.09 40.16 47.02 47.42 45.57 44.49
33.03 32.80 31.40 30.14 29.56 29.01 27.84 27.17 26.87 26.71 26.59 28.16 29.57 28.01 28.36 28.92 29.74 30.02 30.42 30.80 30.99 30.99 31.26 31.70 31.05 30.27 30.70 28.61 28.89 29.16 29.28 29.28 29.88 31.46 33.31 34.30 34.91 35.78 37.02 42.71 47.38 45.78 45.28
MSLP
1010.98 1011.94 1012.70 1013.70 1014.00 1013.88 1014.27 1014.97 1015.51 1016.27 1016.88 1016.94 1016.89 1016.91 1016.72 1016.58 1016.58 1016.50 1016.43 1016.58 1016.86 1016.83 1016.60 1016.46 1016.29 1016.08 1015.83 1015.39 1015.15 1015.02 1014.73 1014.33 1013.55 1012.52 1012.21 1011.70 1011.13 1010.52 1009.91 1009.61 1009.11 1008.33 1007.70
1011.54 1012.40 1013.22 1013.51 1014.03 1014.54 1015.23 1015.95 1016.43 1017.04 1017.26 1017.19 1017.24 1017.21 1017.03 1016.88 1016.77 1016.87 1017.08 1017.14 1017.15 1017.16 1016.78 1016.62 1016.33 1015.98 1015.49 1015.43 1015.31 1015.08 1014.68 1014.24 1013.75 1012.89 1012.43 1011.81 1011.46 1010.94 1010.31 1009.58 1008.90 1008.19 1007.94
1011.57 1012.57 1013.26 1014.03 1014.92 1015.79 1016.40 1016.73 1017.12 1017.44 1017.65 1017.69 1017.56 1017.45 1017.21 1017.09 1017.22 1017.37 1017.51 1017.47 1017.41 1017.28 1016.99 1016.71 1016.38 1015.82 1015.74 1015.54 1015.39 1014.98 1014.73 1014.31 1013.91 1013.23 1012.53 1012.11 1011.57 1011.17 1010.60 1009.90 1009.35 1008.81 1008.18
1012.10 1013.09 1014.03 1015.23 1015.99 1016.68 1016.90 1017.33 1017.75 1018.09 1018.14 1017.97 1017.73 1017.64 1017.43 1017.55 1017.67 1017.70 1017.80 1017.76 1017.61 1017.36 1016.95 1016.59 1016.07 1016.02 1015.77 1015.55 1015.35 1015.07 1014.81 1014.46 1013.90 1013.32 1012.60 1012.05 1011.67 1011.17 1010.82 1010.42 1009.69 1009.28 1008.74
1013.25 1014.03 1015.03 1015.79 1016.46 1017.07 1017.61 1018.13 1018.36 1018.50 1018.41 1018.21 1018.00 1017.84 1017.83 1017.63 1017.89 1017.96 1018.09 1017.93 1017.71 1017.23 1016.85 1016.49 1015.95 1015.81 1015.55 1015.43 1015.24 1015.14 1014.93 1014.42 1013.85 1013.19 1012.58 1011.96 1011.41 1010.97 1010.70 1010.28 1009.91 1009.47 1008.91
1014.64 1015.10 1015.55 1016.35 1017.33 1018.04 1018.57 1018.64 1018.55 1018.91 1018.81 1018.51 1018.47 1018.28 1017.85 1017.75 1018.05 1018.09 1018.08 1018.09 1017.73 1017.28 1016.89 1016.19 1015.84 1015.50 1015.31 1015.16 1014.96 1014.77 1014.55 1014.06 1013.47 1012.95 1012.29 1011.65 1011.03 1010.80 1010.50 1010.26 1010.08 1009.65 1008.96
1015.53 1015.71 1016.51 1017.22 1018.21 1018.79 1019.08 1018.94 1019.35 1019.73 1019.34 1019.11 1018.77 1018.33 1017.92 1017.89 1018.12 1018.16 1018.19 1017.98 1017.69 1017.22 1016.77 1016.27 1015.89 1015.55 1015.23 1014.94 1014.77 1014.48 1014.06 1013.55 1013.15 1012.67 1011.98 1011.36 1010.69 1010.42 1010.22 1009.87 1009.72 1009.45 1009.18
1016.74 1016.88 1017.61 1018.10 1018.76 1019.16 1019.45 1019.85 1020.25 1020.14 1019.73 1019.26 1018.88 1018.54 1018.17 1018.15 1018.34 1018.37 1018.17 1017.91 1017.54 1017.16 1016.78 1016.50 1016.21 1015.60 1015.25 1015.15 1014.79 1014.08 1013.39 1012.63 1012.11 1011.76 1011.37 1010.81 1010.36 1009.91 1009.73 1009.50 1009.25 1008.90 1008.58
1017.32 1017.87 1018.68 1019.06 1019.63 1020.05 1020.35 1020.58 1020.31 1020.20 1019.90 1019.32 1018.75 1018.59 1018.28 1018.36 1018.43 1018.39 1018.28 1018.11 1017.86 1017.32 1017.07 1016.62 1016.25 1015.75 1015.31 1015.05 1014.68 1013.78 1012.79 1011.91 1011.29 1010.87 1010.51 1010.05 1009.68 1009.24 1009.03 1009.01 1008.64 1008.44 1007.87
1018.46 1019.12 1019.67 1020.08 1020.21 1020.42 1020.45 1020.51 1020.19 1019.98 1019.53 1019.15 1018.83 1018.57 1018.50 1018.46 1018.64 1018.92 1018.62 1018.33 1018.15 1017.97 1017.44 1016.75 1016.18 1015.79 1015.29 1014.93 1014.55 1013.67 1012.62 1011.65 1010.89 1009.99 1009.63 1009.26 1008.98 1008.45 1008.16 1008.09 1007.95 1007.91 1007.74
1019.38 1019.72 1020.31 1020.45 1020.55 1020.39 1020.42 1020.17 1019.96 1019.66 1019.55 1019.41 1019.25 1018.99 1019.09 1019.15 1019.37 1019.30 1019.11 1018.85 1018.66 1018.18 1017.57 1017.08 1016.33 1015.77 1015.27 1014.61 1014.09 1013.42 1012.73 1011.84 1010.63 1009.84 1009.17 1008.63 1008.22 1007.82 1007.41 1007.10 1006.99 1007.19 1007.11
1020.26 1020.46 1021.13 1020.97 1020.72 1020.73 1020.45 1020.29 1020.20 1020.41 1020.43 1020.20 1020.09 1020.04 1019.81 1019.74 1019.67 1019.52 1019.21 1018.98 1018.71 1018.40 1017.71 1017.05 1016.54 1015.90 1014.98 1014.26 1013.73 1013.03 1012.26 1011.39 1010.47 1009.67 1008.85 1008.06 1007.53 1007.07 1006.67 1006.40 1006.19 1006.10 1006.11
1021.16 1021.37 1021.49 1021.40 1021.35 1021.22 1021.13 1021.06 1021.05 1021.06 1020.97 1021.01 1021.14 1021.05 1020.67 1020.48 1020.15 1019.85 1019.46 1018.89 1018.48 1018.03 1017.52 1016.95 1016.45 1015.61 1014.69 1013.97 1013.41 1012.79 1012.07 1011.22 1010.50 1009.61 1008.76 1007.95 1007.38 1006.62 1005.98 1005.71 1005.55 1005.37 1005.36
1021.91 1021.91 1022.00 1022.05 1021.96 1021.72 1021.47 1021.32 1021.45 1021.53 1021.61 1021.67 1021.69 1021.64 1021.41 1020.99 1020.44 1020.10 1019.38 1018.71 1018.11 1017.53 1017.23 1016.76 1016.19 1015.37 1014.71 1014.19 1013.27 1012.59 1012.01 1011.35 1010.59 1009.73 1008.77 1007.87 1006.94 1006.04 1005.49 1005.18 1005.10 1005.01 1004.99
1022.53 1022.75 1022.59 1022.43 1022.29 1022.15 1021.84 1021.84 1021.83 1021.93 1022.00 1022.10 1022.14 1021.96 1021.55 1021.24 1021.01 1020.54 1019.75 1018.69 1017.62 1017.24 1017.08 1016.48 1015.98 1015.28 1014.56 1013.96 1013.33 1012.68 1011.89 1011.05 1010.28 1009.54 1008.63 1007.66 1006.83 1005.97 1005.18 1004.83 1004.80 1004.76 1004.74
1023.28 1022.94 1022.89 1022.81 1022.63 1022.45 1022.37 1022.31 1022.21 1022.14 1022.31 1022.25 1022.27 1022.21 1021.86 1021.58 1021.12 1020.51 1019.56 1018.66 1017.75 1017.21 1017.09 1016.87 1016.50 1015.96 1015.48 1014.67 1013.76 1012.65 1011.91 1011.09 1010.27 1009.41 1008.59 1007.82 1006.89 1006.00 1005.15 1004.58 1004.55 1004.47 1004.43
1023.19 1023.21 1023.11 1022.97 1022.92 1022.96 1022.99 1022.92 1022.82 1022.67 1022.47 1022.46 1022.33 1022.19 1021.86 1021.39 1021.02 1020.52 1019.87 1019.14 1018.49 1017.74 1017.52 1017.34 1016.95 1016.46 1015.86 1015.07 1014.24 1013.39 1012.25 1011.27 1010.47 1009.74 1008.89 1007.94 1007.06 1006.11 1005.20 1004.42 1004.18 1004.07 1004.02
1023.40 1023.10 1023.15 1022.99 1023.05 1023.23 1023.28 1023.25 1023.18 1023.18 1023.03 1022.81 1022.57 1022.24 1021.89 1021.40 1020.95 1020.51 1020.12 1019.54 1018.72 1018.21 1018.09 1017.81 1017.37 1016.87 1016.14 1015.33 1014.53 1013.55 1012.39 1011.39 1010.57 1009.83 1008.99 1008.13 1007.25 1006.32 1005.07 1004.09 1003.70 1003.65 1003.57
1023.47 1023.24 1023.07 1023.09 1023.03 1023.10 1023.21 1023.36 1023.50 1023.50 1023.35 1023.08 1022.76 1022.47 1021.84 1021.50 1021.03 1020.66 1020.15 1019.95 1019.68 1018.99 1018.57 1018.05 1017.67 1017.11 1016.35 1015.57 1014.67 1013.68 1012.83 1011.95 1011.09 1010.06 1009.22 1008.27 1007.31 1006.39 1005.05 1003.82 1002.97 1002.83 1002.97
1023.33 1023.10 1023.01 1023.28 1023.07 1023.17 1023.46 1023.53 1023.50 1023.47 1023.34 1023.10 1023.06 1022.88 1022.27 1021.78 1021.38 1021.04 1020.47 1020.06 1019.55 1019.08 1018.72 1018.45 1017.82 1017.14 1016.43 1015.67 1014.78 1013.87 1013.06 1012.08 1011.17 1010.25 1009.33 1008.27 1007.17 1006.37 1005.13 1003.79 1002.71 1001.80 1001.91
1023.36 1023.01 1023.02 1023.09 1023.28 1023.38 1023.73 1023.89 1023.77 1023.68 1023.65 1023.55 1023.50 1023.06 1022.59 1022.43 1022.06 1021.65 1021.00 1020.37 1019.56 1018.79 1018.59 1018.33 1017.72 1016.99 1016.40 1015.86 1015.17 1014.41 1013.64 1012.63 1011.70 1010.68 1009.54 1008.36 1007.24 1005.93 1004.94 1003.63 1002.33 1001.96 1001.80
1023.00 1023.03 1023.20 1023.52 1023.62 1023.93 1024.24 1024.18 1024.16 1024.07 1024.05 1024.02 1023.88 1023.52 1023.12 1022.84 1022.53 1022.02 1021.38 1020.67 1019.81 1018.92 1018.36 1018.16 1017.62 1016.94 1016.67 1016.39 1015.83 1015.07 1014.18 1013.18 1011.86 1010.85 1009.67 1008.45 1007.18 1006.02 1005.02 1003.84 1002.94 1002.66 1002.49
1022.99 1023.29 1023.68 1023.79 1024.06 1024.20 1024.48 1024.58 1024.74 1024.78 1024.63 1024.48 1024.21 1024.03 1023.67 1023.38 1022.99 1022.40 1021.76 1021.01 1020.15 1019.39 1018.76 1018.23 1017.94 1017.35 1017.22 1016.82 1016.43 1015.85 1014.98 1013.93 1012.81 1011.50 1010.09 1008.63 1007.07 1005.70 1004.68 1004.12 1003.34 1003.23 1003.18
1023.53 1023.78 1024.12 1024.25 1024.44 1024.73 1024.89 1025.05 1025.08 1025.21 1025.19 1024.97 1024.69 1024.51 1024.31 1023.94 1023.46 1022.85 1022.26 1021.51 1020.69 1019.96 1019.40 1018.95 1018.53 1018.24 1017.74 1017.40 1016.96 1016.31 1015.46 1014.37 1013.10 1011.73 1010.40 1008.87 1007.24 1005.84 1004.72 1004.12 1003.83 1003.69 1003.60
1024.23 1024.51 1024.79 1025.03 1025.11 1025.22 1025.54 1025.65 1025.65 1025.70 1025.77 1025.47 1025.17 1025.08 1024.85 1024.48 1024.00 1023.38 1022.77 1021.98 1021.34 1020.65 1020.03 1019.58 1019.23 1018.85 1018.35 1018.04 1017.41 1016.60 1015.61 1014.40 1013.16 1011.89 1010.41 1009.23 1007.87 1006.69 1005.70 1004.82 1004.39 1004.24 1004.15
1024.93 1025.19 1025.48 1025.51 1025.57 1025.66 1026.02 1026.26 1026.23 1026.32 1026.42 1026.00 1025.72 1025.66 1025.35 1024.97 1024.51 1023.91 1023.31 1022.56 1022.00 1021.40 1020.80 1020.21 1019.82 1019.33 1018.64 1018.35 1017.63 1016.83 1015.81 1014.69 1013.43 1012.12 1010.84 1009.77 1008.61 1007.59 1006.77 1005.70 1004.91 1004.74 1004.62
Wind_Speed
12 10 11 8 10 10 10 8 8 7 6 6 6 6 6 6 7 6 6 7 7 6 6 6 6 5 4 5 5 4 5 7 10 10 8 9 13 13 11 7 8 7 6
12 12 12 11 11 11 9 8 8 7 6 6 6 6 6 6 7 7 7 6 7 7 7 6 6 6 7 6 4 6 7 9 10 13 11 11 12 11 13 11 7 7 6
14 14 12 11 10 9 7 7 7 7 6 6 6 6 6 6 7 7 7 7 7 7 6 6 7 7 6 6 6 5 6 6 7 9 11 11 11 9 11 9 9 7 6
16 15 13 9 8 7 7 7 7 6 6 6 6 6 6 7 7 6 6 6 6 7 6 6 6 7 8 5 6 7 7 7 8 8 9 10 9 11 8 9 10 8 8
14 12 9 8 8 8 8 7 6 6 5 6 5 6 5 5 4 5 5 6 6 7 6 7 7 9 15 8 6 5 5 5 7 8 9 9 9 9 9 9 9 6 7
11 12 11 11 8 8 7 7 7 6 5 6 6 4 4 4 4 7 7 5 6 6 8 8 5 9 6 11 11 10 10 10 11 9 10 10 12 9 8 7 6 7 7
12 13 11 10 9 7 6 7 8 7 6 6 6 6 5 4 5 7 8 4 6 7 8 8 7 7 8 7 8 11 12 15 14 12 12 12 12 9 9 10 8 6 7
12 13 11 10 9 7 8 8 6 4 5 4 6 6 5 3 6 6 9 6 7 7 6 7 9 9 10 7 9 13 14 12 12 9 10 12 12 11 9 9 10 9 8
12 11 10 9 6 7 7 5 3 3 4 3 4 5 6 4 3 6 8 6 7 7 8 9 9 12 7 10 12 14 14 13 11 13 16 17 17 17 13 8 7 7 7
9 10 8 6 6 6 4 3 3 2 3 4 5 5 8 2 1 11 10 6 8 8 9 9 11 11 15 17 11 12 12 13 15 15 11 11 12 12 16 10 7 7 7
9 10 7 7 5 5 4 2 4 4 5 5 6 5 7 9 8 13 14 7 7 8 7 9 8 14 19 18 15 9 14 16 16 11 9 8 8 8 7 7 8 7 6
8 7 6 6 6 6 6 5 8 9 7 7 7 6 6 8 10 14 18 15 15 7 8 8 8 19 18 18 13 16 19 16 9 9 9 8 7 7 7 7 7 8 8
8 7 6 7 6 6 6 6 5 6 6 6 6 6 7 7 6 14 16 15 14 9 6 11 19 18 15 11 14 16 16 9 10 10 10 9 8 9 10 6 7 8 7
7 7 6 6 6 6 4 4 4 4 4 4 5 5 6 7 8 9 9 9 13 8 9 8 13 12 10 10 11 11 9 9 9 9 10 10 9 7 7 5 5 3 2
7 6 6 5 5 6 6 3 3 4 4 3 3 4 7 7 8 12 14 11 10 7 8 4 6 8 10 10 10 10 10 9 10 10 10 10 10 8 8 4 4 3 3
3 4 4 4 4 5 5 5 7 4 7 5 4 3 5 8 11 15 20 18 13 7 4 6 7 8 9 10 11 12 10 14 11 11 10 10 9 9 8 3 3 3 4
5 4 3 4 4 4 4 5 5 6 5 2 7 6 9 11 11 13 19 16 15 11 7 8 8 8 9 9 10 11 12 12 13 11 10 10 9 9 9 4 3 4 4
2 5 2 2 3 4 3 3 3 5 5 5 5 9 10 12 11 11 11 11 10 10 8 7 8 8 9 9 10 11 11 12 12 11 10 10 9 9 8 6 4 4 4
2 3 2 2 4 5 4 4 3 3 2 3 3 6 7 11 10 10 10 4 6 7 7 8 7 8 9 9 10 10 12 12 12 11 10 10 10 9 10 9 6 7 6
5 9 5 2 3 3 3 3 3 3 4 3 3 5 7 5 6 8 8 7 5 4 5 6 7 7 8 10 11 10 12 12 12 11 11 10 10 9 10 11 9 7 5
4 2 1 5 4 4 4 4 3 3 4 4 4 5 9 5 6 8 8 9 9 8 3 5 6 8 8 10 12 11 12 12 12 12 11 11 10 11 10 9 4 5 4
3 5 5 5 4 5 4 4 4 5 5 5 4 6 9 6 7 8 9 10 10 9 3 3 5 8 8 10 11 11 12 13 14 13 13 12 11 10 9 9 3 4 4
5 6 5 5 5 5 5 5 5 5 5 5 5 6 7 6 7 8 9 10 9 9 9 7 10 10 8 10 10 11 11 13 14 13 14 13 12 11 6 6 2 3 3
6 6 6 5 5 5 5 5 5 6 6 5 5 6 6 7 8 10 10 10 10 9 8 8 10 15 9 12 11 11 12 13 13 13 17 12 12 13 8 4 4 4 3
5 6 5 5 5 5 6 5 6 6 5 5 6 6 6 8 9 9 10 9 10 10 10 10 10 15 11 18 17 20 20 23 20 20 12 13 15 15 12 7 3 3 4
6 6 5 5 5 5 5 5 5 5 5 5 7 6 6 7 8 9 10 10 11 10 12 10 13 19 14 15 19 21 22 24 22 22 14 12 13 12 12 12 6 3 3
Wind_Direction
99 99 97 89 85 81 76 68 69 64 51 39 22 11 9 18 16 21 4 13 37 20 6 352 344 342 318 325 327 330 324 321 314 318 323 332 332 326 330 322 305 301 332
112 102 94 84 74 73 67 61 60 51 36 32 20 16 13 19 10 29 44 26 26 2 340 353 331 323 325 331 338 319 310 314 315 319 321 324 322 327 328 322 318 320 333
98 93 80 76 72 70 71 63 56 47 26 19 24 15 5 11 57 37 38 20 10 339 335 326 308 335 359 335 324 327 326 325 314 312 316 318 316 320 323 329 340 340 342
94 90 87 82 85 79 70 60 52 36 37 23 13 358 353 77 57 40 20 8 344 336 315 309 315 356 335 354 343 333 325 318 317 312 308 309 311 317 315 328 324 329 331
94 93 92 87 77 67 57 52 50 42 25 8 357 1 33 87 47 39 20 357 329 325 315 304 336 329 325 335 327 320 317 306 308 305 302 301 304 311 311 315 307 313 313
99 96 80 78 69 60 48 51 45 20 360 4 20 37 37 63 71 40 25 338 326 317 312 313 317 332 337 320 306 300 300 307 302 300 296 292 294 293 297 301 312 311 314
79 73 65 67 64 51 49 43 32 21 17 11 358 0 28 76 58 36 360 333 324 321 313 340 339 330 316 308 314 312 298 288 284 287 287 283 291 293 292 288 285 279 292
64 64 58 62 57 47 47 46 22 2 351 348 3 5 4 68 72 22 356 344 335 317 341 340 323 315 314 341 324 313 306 302 293 283 277 280 281 288 284 285 288 280 270
57 59 52 58 53 63 54 28 350 337 306 350 359 353 2 44 60 3 355 353 330 329 349 328 323 313 314 335 329 313 308 304 300 274 260 268 276 277 268 283 272 266 276
59 73 68 50 68 69 56 345 304 312 335 348 1 7 347 63 343 12 7 359 356 344 328 316 310 314 346 330 323 317 310 315 317 310 298 282 276 279 274 250 258 256 265
60 65 53 39 62 57 9 334 344 348 19 12 355 4 29 53 70 38 20 10 351 330 322 319 310 345 328 323 320 317 321 315 313 303 296 291 288 282 275 262 240 226 244
53 65 56 41 32 10 11 9 32 33 19 8 16 20 9 19 34 17 4 353 337 321 311 305 324 319 315 316 317 324 319 318 320 314 306 292 286 280 272 266 262 230 224
53 42 57 32 36 21 29 22 50 36 22 13 26 1 6 359 347 357 337 331 323 316 304 314 315 306 310 321 326 328 327 328 320 319 316 311 305 293 275 261 267 248 228
50 37 30 42 37 18 16 28 48 40 32 15 26 0 352 340 344 339 329 320 306 302 308 312 298 301 318 320 332 335 330 320 318 315 311 303 295 308 281 252 258 256 257
46 44 30 37 26 6 358 28 42 43 52 31 16 4 351 344 340 330 333 318 306 302 309 311 341 345 345 345 335 330 328 327 329 324 317 318 314 307 304 252 250 239 238
58 42 37 31 18 17 27 29 16 24 65 51 10 356 354 341 343 341 353 349 6 57 32 10 353 350 340 332 331 330 333 333 329 326 324 319 317 316 312 252 233 232 243
55 43 46 41 29 37 33 32 19 14 91 74 30 3 10 357 348 349 357 1 12 19 22 3 352 344 334 330 333 331 326 328 328 330 322 321 320 313 313 270 243 234 238
49 105 145 177 96 90 79 43 29 35 16 6 16 358 353 352 341 345 354 351 13 21 14 355 346 336 333 335 330 327 327 329 331 330 326 326 322 315 308 288 255 236 240
315 308 274 230 121 120 99 81 56 50 13 342 355 336 344 337 345 347 348 14 350 358 353 354 343 335 336 331 329 327 334 328 325 327 327 325 322 317 309 297 249 226 221
296 261 271 272 90 94 122 107 70 51 35 14 22 359 351 347 9 3 359 353 339 336 340 331 334 338 342 344 336 339 332 331 332 331 329 323 318 311 303 302 301 271 207
283 156 143 61 72 36 78 73 51 45 35 29 12 4 2 18 1 2 354 346 341 335 295 300 327 343 351 351 347 343 337 331 333 330 325 321 318 317 316 308 339 18 59
302 87 75 49 62 47 60 66 43 34 43 45 11 6 10 14 5 358 352 345 337 329 292 290 341 356 8 359 350 344 341 337 334 333 329 323 318 313 312 315 14 28 46
69 73 77 54 70 51 54 53 37 26 33 39 26 16 13 6 359 357 351 344 336 354 359 7 12 3 14 4 358 348 342 339 331 326 325 320 314 315 288 301 5 44 45
61 72 60 40 60 65 64 58 37 33 28 27 23 21 10 0 354 356 354 345 356 351 1 11 7 359 12 7 358 350 343 337 333 331 328 322 330 336 338 351 27 47 62
58 60 64 42 56 59 58 51 43 28 15 23 27 14 3 359 357 355 355 351 356 355 0 9 4 358 16 5 358 352 347 345 344 338 337 339 342 348 350 343 13 43 69
63 67 68 49 31 60 69 58 55 36 17 15 29 10 356 358 354 358 354 358 0 360 0 2 3 0 11 3 358 352 351 350 348 348 347 352 355 354 349 350 11 53 77